Location: Beaurecueil
(43.5122°N, 5.5450°E)
Time: 14:41:45
(UTC+00:00)

Cosmos 1428 Rocket - Pass Details

Date: 18 September 2020
Orbit: 947 x 989 km, 82.9° (Epoch: 30 October)

Event Time Altitude Azimuth Distance (km) Brightness Sun altitude
Rises 20:09:43 0° 353° (N) 3,700 8.0 -26.4°
Reaches altitude 10° 20:12:16 10° 355° (N) 2,744 7.3 -26.8°
Maximum altitude 20:18:34 78° 81° (E) 999 4.3 -27.7°
Enters shadow 20:18:53 76° 116° (ESE) 1,007 4.3 -27.8°
